Date,TemperatureHighF,TemperatureAvgF,TemperatureLowF,DewpointHighF,DewpointAvgF,DewpointLowF,HumidityHigh,HumidityAvg,HumidityLow,PressureMaxIn,PressureMinIn,WindSpeedMaxMPH,WindSpeedAvgMPH,GustSpeedMaxMPH,PrecipitationSumIn
2014-1-1,80.0,76.7,73.7,74.6,71.4,65.3,91,84,73,30.18,30.03,9,1,13,0.04
2014-1-2,82.5,78.1,72.9,73.4,70.4,66.7,92,78,64,30.03,29.86,10,2,15,0.00
2014-1-3,73.2,67.1,60.7,70.7,57.9,50.3,92,73,57,30.17,29.88,10,2,15,0.00
2014-1-4,75.9,71.4,67.3,70.4,64.9,56.8,90,80,69,30.17,30.06,6,0,14,0.12
2014-1-5,82.1,76.5,69.0,74.7,70.5,66.2,93,82,75,30.06,29.95,11,2,16,0.00
2014-1-6,84.5,72.6,57.8,73.4,65.8,36.0,97,81,44,30.18,29.95,10,1,14,0.24
2014-1-7,59.8,54.3,48.9,51.6,44.7,33.0,87,71,44,30.29,30.17,10,2,16,0.00
2014-1-8,71.0,65.0,52.1,66.9,61.9,49.2,97,90,83,30.30,30.20,14,2,22,0.20
2014-1-9,77.0,74.6,70.6,73.7,71.0,66.9,93,89,84,30.23,30.11,9,2,18,0.08
2014-1-10,79.7,77.2,75.6,74.2,72.2,69.6,91,85,80,30.15,30.06,9,2,14,0.00
2014-1-11,81.9,77.6,73.1,74.9,72.7,70.5,93,85,78,30.11,29.97,12,3,15,0.00
2014-1-12,80.9,72.7,66.2,71.1,66.0,60.5,95,80,55,30.15,30.01,8,0,13,0.00
2014-1-13,79.6,75.7,70.9,72.1,69.1,64.0,86,80,72,30.15,30.02,9,1,10,0.00
2014-1-14,84.4,76.0,68.7,73.3,69.4,66.2,96,81,59,30.03,29.92,7,0,12,0.00
2014-1-15,70.5,65.3,56.8,66.9,59.8,52.3,96,83,66,30.01,29.92,5,0,12,0.08
2014-1-16,62.0,55.6,44.3,55.2,44.2,31.6,91,68,38,30.14,29.93,9,1,14,0.04
2014-1-17,68.8,54.7,41.6,49.7,41.3,35.0,88,62,42,30.21,30.08,3,0,8,0.00
2014-1-18,70.6,57.0,45.8,53.3,42.6,32.9,88,60,35,30.23,30.13,8,0,12,0.00
2014-1-19,71.6,54.9,41.5,47.8,38.8,28.5,82,57,30,30.28,30.14,5,0,8,0.00
2014-1-20,77.2,64.9,52.6,59.7,55.5,47.4,92,73,52,30.19,30.03,6,0,11,0.00
2014-1-21,74.7,66.0,61.6,63.1,59.4,57.0,92,80,60,30.06,29.88,8,0,10,0.00
2014-1-22,65.6,57.3,44.4,60.7,43.9,35.8,93,64,34,30.17,29.88,8,1,13,0.00
2014-1-23,75.0,58.0,42.6,59.4,47.5,34.7,84,69,49,30.28,30.15,7,0,9,0.00
2014-1-24,73.2,62.3,55.8,58.5,54.3,52.0,89,76,56,30.36,30.21,9,1,16,0.00
2014-1-25,76.1,64.7,52.3,64.4,57.5,49.4,92,78,54,30.22,30.04,7,0,9,0.00
2014-1-26,78.5,67.4,54.9,65.7,60.2,53.2,97,79,48,30.09,29.98,7,0,9,0.00
2014-1-27,80.3,70.3,59.0,70.5,65.1,57.6,98,84,63,30.03,29.93,7,1,11,0.00
2014-1-28,79.1,71.2,60.9,71.2,66.9,59.8,98,87,72,30.08,29.96,9,1,11,0.00
2014-1-29,75.9,69.4,65.0,72.2,67.6,63.3,98,94,86,30.06,29.97,7,0,15,0.47
2014-1-30,70.1,66.6,63.0,69.2,65.4,61.7,98,96,93,30.10,30.01,4,0,10,0.87
2014-1-31,80.8,75.3,69.8,75.7,72.8,68.9,98,92,83,30.08,30.00,8,1,10,0.83
2014-2-1,81.1,77.2,74.8,74.5,72.8,71.6,94,87,79,30.13,30.05,7,1,13,0.00
2014-2-2,80.0,76.5,71.5,73.5,71.6,68.7,95,85,79,30.15,30.05,8,1,16,0.04
2014-2-3,81.3,77.5,75.4,74.9,73.0,71.3,90,86,79,30.10,30.01,7,1,13,0.00
2014-2-4,80.8,77.6,75.5,74.4,72.3,71.0,90,84,76,30.13,30.04,8,2,13,0.00
2014-2-5,81.8,76.5,70.5,75.4,72.3,68.7,96,87,76,30.09,29.99,11,2,15,0.16
2014-2-6,80.9,75.6,70.5,75.2,71.7,69.3,98,88,76,30.10,30.01,8,0,10,0.00
2014-2-7,82.3,74.7,69.6,74.0,70.7,68.2,97,88,74,30.12,30.03,5,0,8,0.00
2014-2-8,82.1,74.2,67.6,74.7,70.3,65.9,98,88,76,30.08,29.98,7,1,11,0.00
2014-2-9,78.5,69.7,64.1,71.4,66.0,60.9,97,88,75,30.07,29.98,6,0,13,0.00
2014-2-10,81.6,71.8,63.7,73.0,66.2,61.4,95,83,68,30.08,29.99,6,0,8,0.00
2014-2-11,81.0,75.6,69.5,72.9,69.2,64.1,92,81,69,30.06,29.97,8,1,12,0.04
2014-2-12,81.2,72.3,62.1,72.4,67.0,60.1,96,84,71,30.03,29.82,11,2,15,0.87
2014-2-13,75.9,66.9,56.3,68.7,60.0,50.3,96,80,57,29.97,29.74,8,0,14,0.04
2014-2-14,68.4,58.9,46.1,52.5,47.8,39.0,92,70,35,30.08,29.95,5,0,7,0.00
2014-2-15,81.4,65.2,52.3,63.8,56.4,48.6,95,75,49,30.11,29.97,7,0,12,0.00
2014-2-16,78.0,63.9,49.2,62.5,53.7,45.0,91,71,50,30.18,30.09,5,0,9,0.00
2014-2-17,78.9,67.6,55.9,65.2,58.9,53.3,92,75,60,30.21,30.13,5,0,9,0.00
2014-2-18,79.9,73.3,65.7,66.6,62.8,60.3,85,70,55,30.23,30.14,5,0,8,0.00
2014-2-19,79.1,75.0,72.1,67.4,65.3,63.0,79,72,63,30.17,30.07,7,1,10,0.00
2014-2-20,80.8,76.7,73.6,72.0,69.0,65.2,86,77,69,30.17,30.07,11,2,13,0.00
2014-2-21,81.9,77.9,76.0,74.4,72.5,71.3,89,83,76,30.10,30.02,11,2,14,0.00
2014-2-22,82.0,76.9,70.1,74.3,71.9,68.2,96,85,75,30.11,29.99,9,1,10,0.00
2014-2-23,81.9,76.1,68.3,74.9,71.8,67.0,98,87,77,30.08,29.98,8,1,13,0.00
2014-2-24,85.4,76.3,68.3,73.6,70.9,66.5,96,84,59,30.03,29.95,4,0,9,0.00
2014-2-25,87.2,77.0,69.2,74.4,69.7,64.6,97,80,49,30.02,29.91,2,0,9,0.00
2014-2-26,87.0,75.4,65.1,70.2,66.4,61.8,97,76,46,29.95,29.75,6,0,14,0.00
2014-2-27,81.3,73.3,66.1,70.5,67.0,62.9,95,81,62,29.93,29.76,7,0,11,0.24
2014-2-28,75.7,66.6,59.3,66.1,60.9,53.8,97,83,63,30.07,29.88,3,0,8,0.08
2014-3-1,82.4,69.2,56.2,68.3,60.1,54.2,96,75,53,30.15,30.04,7,0,11,0.00
2014-3-2,79.6,74.1,68.8,67.5,63.0,59.4,76,69,59,30.18,30.07,7,0,10,0.00
2014-3-3,79.7,74.2,65.3,66.4,63.8,59.7,89,70,58,30.08,29.98,8,1,11,0.00
2014-3-4,81.0,72.5,62.5,70.9,65.7,60.5,96,80,66,30.07,29.97,7,0,10,0.00
2014-3-5,80.9,76.5,72.1,73.0,69.1,65.2,91,78,69,30.03,29.92,10,1,13,0.00
2014-3-6,81.7,72.6,66.5,74.4,68.8,64.1,98,88,69,29.99,29.79,10,1,16,0.43
2014-3-7,80.8,71.3,59.1,68.4,62.1,52.6,95,75,45,30.02,29.78,8,0,17,0.00
2014-3-8,75.1,64.2,55.8,62.2,56.4,50.2,92,76,56,30.13,30.01,7,0,9,0.00
2014-3-9,79.6,69.7,60.3,68.4,62.5,58.6,97,79,60,30.16,30.07,4,0,8,0.00
2014-3-10,82.7,71.7,62.7,66.7,63.2,60.2,94,76,53,30.11,29.96,8,1,10,0.00
2014-3-11,78.4,72.1,60.9,68.9,64.9,57.9,93,79,66,30.02,29.86,9,1,13,0.00
2014-3-12,87.2,77.9,70.8,72.3,68.4,65.6,91,74,53,29.89,29.75,7,0,13,0.00
2014-3-13,77.2,68.9,59.3,69.5,58.7,46.4,85,70,54,30.15,29.84,11,1,18,0.00
2014-3-14,75.3,67.8,59.1,60.4,55.0,47.7,77,64,54,30.25,30.13,8,1,15,0.00
2014-3-15,78.2,72.3,61.3,62.9,59.4,54.9,85,65,50,30.16,30.04,8,0,10,0.00
2014-3-16,79.6,75.5,72.4,69.4,65.4,60.8,80,71,66,30.04,29.82,12,2,14,0.00
2014-3-17,81.8,77.7,74.7,74.3,72.0,68.4,89,83,75,29.84,29.73,14,3,17,0.00
2014-3-18,80.6,74.4,65.3,73.7,66.3,58.2,95,77,55,30.00,29.70,9,1,15,0.55
2014-3-19,80.1,71.8,62.9,68.7,64.4,60.3,94,78,64,30.07,29.97,3,0,8,0.00
2014-3-20,79.7,75.5,70.9,71.5,68.5,64.2,85,79,72,30.04,29.94,8,1,11,0.00
2014-3-21,80.8,72.5,62.0,72.6,67.0,60.3,96,83,72,30.05,29.95,7,0,13,0.00
2014-3-22,78.6,75.7,71.3,73.8,70.2,62.0,92,83,71,30.08,29.97,12,2,13,0.16
2014-3-23,86.2,76.4,67.9,74.3,67.9,62.4,91,76,52,30.05,29.93,5,0,11,0.00
2014-3-24,75.8,72.0,66.9,70.2,68.0,64.7,95,87,77,30.04,29.90,1,0,6,0.16
2014-3-25,83.7,70.9,63.5,73.2,66.5,51.9,97,87,62,30.01,29.81,12,0,12,0.31
2014-3-26,71.4,62.7,53.7,58.7,51.8,42.0,82,68,54,30.24,30.01,11,1,16,0.00
2014-3-27,76.2,70.9,65.1,64.7,59.4,53.1,81,67,58,30.29,30.17,14,2,17,0.00
2014-3-28,79.1,75.6,72.8,71.3,66.6,62.5,85,74,67,30.18,30.05,13,4,16,0.00
2014-3-29,80.3,76.2,68.9,75.3,72.2,66.3,92,88,83,30.08,29.92,11,2,16,0.12
2014-3-30,82.1,71.6,59.5,68.0,59.1,45.1,94,68,36,30.06,29.90,7,0,13,0.00
2014-3-31,80.6,72.1,58.2,67.2,61.2,49.7,81,69,57,30.13,30.06,8,0,11,0.00
2014-4-1,78.6,72.1,62.7,65.4,61.5,58.1,86,70,58,30.17,30.08,2,0,8,0.00
2014-4-2,79.0,73.9,69.3,65.1,61.9,58.2,75,66,57,30.18,30.10,7,0,9,0.00
2014-4-3,78.9,75.1,72.0,67.7,64.5,61.4,75,70,65,30.15,30.06,8,1,11,0.00
2014-4-4,80.9,76.9,74.2,67.9,66.2,64.1,76,70,61,30.08,30.00,10,2,12,0.00
2014-4-5,81.5,76.3,67.9,70.0,67.6,64.6,92,75,63,30.05,29.97,8,1,9,0.00
2014-4-6,81.6,76.5,67.8,70.4,68.3,64.9,93,76,67,30.03,29.92,10,3,13,0.00
2014-4-7,83.0,78.8,75.6,76.1,73.1,68.6,93,83,76,29.98,29.87,12,3,16,0.00
2014-4-8,85.8,77.8,67.0,77.2,72.4,63.6,94,84,66,29.92,29.74,10,1,16,0.16
2014-4-9,80.9,71.4,64.6,64.7,58.3,51.0,88,65,43,30.14,29.87,5,0,12,0.00
2014-4-10,80.0,73.3,68.4,61.5,56.9,51.1,68,57,46,30.25,30.13,9,1,15,0.00
2014-4-11,80.0,75.0,71.1,69.8,64.8,58.9,79,71,62,30.22,30.11,6,0,9,0.00
2014-4-12,83.1,77.1,72.0,70.5,66.8,64.8,81,71,56,30.17,30.06,12,1,16,0.00
2014-4-13,79.0,74.4,69.1,74.5,70.1,66.1,98,87,76,30.09,29.98,10,1,16,3.03
2014-4-14,83.1,78.8,75.7,75.5,73.3,71.5,89,84,76,30.00,29.90,9,2,13,0.00
2014-4-15,83.2,78.1,72.0,76.4,73.6,69.5,95,86,78,29.92,29.82,13,2,16,0.98
2014-4-16,82.8,75.7,69.7,74.5,71.1,68.2,96,86,74,30.07,29.90,9,1,15,0.00
2014-4-17,83.0,76.7,74.2,75.4,72.6,70.5,94,87,76,30.14,30.03,9,1,15,0.43
2014-4-18,82.7,78.2,72.8,74.3,72.8,70.1,96,84,74,30.08,29.94,10,2,15,0.12
2014-4-19,88.7,78.2,68.9,75.4,71.0,62.0,95,79,54,29.97,29.85,9,1,13,0.16
2014-4-20,80.4,70.9,65.1,67.7,62.6,58.9,85,76,59,30.03,29.93,9,0,9,0.00
2014-4-21,83.8,71.3,61.4,70.3,64.3,58.6,92,79,59,30.03,29.91,9,1,14,0.00
2014-4-22,81.7,73.8,66.6,70.5,67.2,63.8,92,81,66,29.96,29.83,6,1,7,0.00
2014-4-23,84.3,74.7,65.2,71.4,67.4,63.0,93,79,58,29.95,29.86,8,1,9,0.00
2014-4-24,81.8,76.0,65.9,73.7,68.7,63.0,92,79,68,30.01,29.91,8,2,11,0.00
2014-4-25,85.6,78.0,69.2,74.2,70.6,66.2,92,78,60,30.01,29.90,8,1,10,0.00
2014-4-26,86.9,78.9,68.9,77.0,72.0,66.2,93,80,69,30.00,29.91,10,1,12,0.00
2014-4-27,84.8,80.7,77.2,74.0,71.0,68.6,83,73,63,30.01,29.93,7,2,9,0.00
2014-4-28,84.6,80.9,78.5,75.7,73.5,68.5,86,78,69,29.99,29.89,10,4,12,0.00
2014-4-29,85.5,81.5,78.9,78.1,75.8,73.4,88,83,77,30.01,29.86,9,3,14,0.00
2014-4-30,86.1,81.6,78.9,78.0,76.2,74.6,90,84,75,30.06,29.95,9,1,12,0.00
2014-5-1,85.5,81.3,78.8,77.1,75.0,73.6,89,82,73,30.03,29.94,10,3,15,0.00
2014-5-2,85.6,81.1,76.4,75.7,73.7,70.7,86,79,70,29.98,29.85,12,3,14,0.00
2014-5-3,84.5,76.6,71.8,76.8,72.6,68.4,97,88,68,29.99,29.89,6,1,16,2.83
2014-5-4,82.9,75.2,67.4,72.4,67.8,61.8,97,79,50,30.05,29.95,10,1,16,0.00
2014-5-5,85.3,76.0,66.4,73.3,66.4,62.0,94,73,53,30.05,29.97,9,0,13,0.00
2014-5-6,84.7,77.4,65.9,71.7,68.0,63.4,94,74,59,30.03,29.97,6,0,10,0.00
2014-5-7,85.1,80.7,77.3,73.9,70.4,67.4,77,71,65,30.13,30.00,10,1,11,0.00
2014-5-8,84.9,80.8,77.8,73.8,71.1,68.2,80,72,66,30.18,30.09,8,1,11,0.00
2014-5-9,84.7,80.5,77.9,74.8,71.0,68.3,78,73,66,30.18,30.08,9,1,12,0.00
2014-5-10,84.4,80.4,77.9,74.4,72.3,69.9,81,77,70,30.15,30.05,9,1,13,0.00
2014-5-11,85.2,80.5,78.5,73.1,71.3,66.7,82,74,59,30.13,30.04,5,0,10,0.00
2014-5-12,85.8,81.2,78.0,75.6,72.1,69.0,81,74,65,30.11,30.03,5,0,14,0.00
2014-5-13,84.6,79.7,74.6,78.1,74.4,71.5,93,84,75,30.05,29.97,9,2,18,0.47
2014-5-14,84.5,80.6,76.6,76.8,74.0,71.1,91,81,68,30.05,29.96,12,4,14,0.08
2014-5-15,83.5,77.4,74.4,77.5,74.6,71.7,95,91,81,30.01,29.91,11,3,15,0.75
2014-5-16,79.4,74.0,67.2,73.6,68.5,54.7,96,84,54,30.06,29.93,6,0,10,0.00
2014-5-17,84.4,74.8,64.5,68.6,62.7,58.8,84,67,52,30.09,30.02,13,2,17,0.00
2014-5-18,83.6,77.7,74.1,70.2,65.3,59.3,73,66,58,30.11,30.04,14,2,17,0.00
2014-5-19,84.6,78.6,74.7,71.3,67.1,63.3,76,68,59,30.13,30.06,14,3,17,0.00
2014-5-20,84.7,78.8,74.9,71.6,67.7,64.8,77,69,59,30.17,30.09,12,2,15,0.00
2014-5-21,84.1,78.2,74.0,71.0,66.1,63.0,73,67,54,30.16,30.09,12,2,12,0.00
2014-5-22,83.8,77.6,69.2,72.3,67.9,65.1,90,73,62,30.14,30.04,6,1,9,0.00
2014-5-23,89.5,79.0,68.6,74.1,70.7,66.5,95,77,53,30.09,30.00,8,2,10,0.00
2014-5-24,90.0,80.3,71.3,75.2,71.8,68.3,92,76,51,30.08,30.00,9,2,12,0.00
2014-5-25,86.4,79.8,72.1,77.7,73.6,70.2,95,82,69,30.11,30.01,5,1,10,0.00
2014-5-26,86.3,81.3,77.5,76.7,73.6,71.5,85,78,67,30.16,30.07,7,1,12,0.00
2014-5-27,85.6,81.0,77.4,75.3,73.3,71.7,87,78,67,30.13,30.03,7,1,9,0.00
2014-5-28,85.7,81.4,77.0,77.1,74.2,71.4,88,79,67,30.07,29.98,7,2,11,0.00
2014-5-29,83.0,78.3,73.8,77.3,73.0,68.3,92,84,73,30.04,29.95,7,1,10,0.51
2014-5-30,85.4,80.1,73.1,78.4,73.9,68.7,94,82,68,30.02,29.95,8,1,11,0.00
2014-5-31,86.2,81.9,79.1,76.6,74.6,73.4,86,79,70,30.02,29.95,5,1,8,0.00
2014-6-1,86.2,81.8,77.3,78.1,75.0,70.7,86,80,72,30.03,29.96,10,1,12,0.00
2014-6-2,81.6,79.0,74.7,75.5,73.1,70.1,94,82,75,30.08,29.98,8,2,16,0.28
2014-6-3,82.9,78.5,76.8,72.5,68.9,65.0,79,73,64,30.05,29.97,8,1,11,0.00
2014-6-4,84.2,79.4,75.7,73.9,70.9,69.3,83,75,67,29.98,29.91,6,1,14,0.00
2014-6-5,85.9,80.6,76.0,75.0,70.2,68.3,80,71,62,29.97,29.89,8,1,9,0.00
2014-6-6,88.8,80.1,69.7,76.2,72.1,67.4,95,78,57,29.98,29.90,6,1,10,0.00
2014-6-7,90.7,82.6,75.5,79.0,75.0,70.0,95,79,56,29.99,29.92,8,1,11,0.00
2014-6-8,87.3,79.7,74.8,78.2,73.2,68.5,90,81,68,30.00,29.91,5,0,10,0.00
2014-6-9,87.1,79.0,71.8,78.6,73.1,69.3,96,83,66,30.00,29.89,7,1,11,0.00
2014-6-10,88.4,78.3,73.1,79.5,73.4,69.2,95,86,64,30.04,29.96,7,0,9,1.34
2014-6-11,86.8,77.8,73.0,77.9,73.7,70.8,97,88,71,30.02,29.94,9,1,15,0.24
2014-6-12,87.3,76.7,71.4,75.4,72.0,69.3,97,86,58,30.05,29.95,8,1,12,0.63
2014-6-13,85.4,77.0,72.4,77.6,73.6,70.1,97,90,75,30.06,29.96,9,1,12,0.28
2014-6-14,87.1,79.3,71.2,79.6,75.0,70.3,98,87,74,30.09,29.99,9,1,11,0.00
2014-6-15,87.5,82.7,77.7,79.3,76.7,74.1,90,82,74,30.11,30.01,6,1,9,0.00
2014-6-16,86.9,81.8,77.1,77.3,74.6,71.5,93,79,66,30.15,30.05,9,1,13,0.00
2014-6-17,80.5,77.2,73.0,75.6,72.4,69.7,95,85,75,30.15,30.05,10,1,20,0.39
2014-6-18,83.0,77.9,72.6,78.0,73.3,69.9,95,86,75,30.10,30.04,9,1,12,0.12
2014-6-19,85.8,78.0,72.7,76.5,73.0,70.1,96,85,67,30.11,30.03,5,1,8,0.16
2014-6-20,87.2,76.6,70.9,78.0,72.6,70.0,97,88,68,30.08,30.01,5,0,7,0.00
2014-6-21,88.3,77.9,72.7,78.5,73.9,71.4,97,88,67,30.03,29.92,7,1,10,0.20
2014-6-22,91.1,79.2,72.9,79.9,74.7,69.2,97,87,62,30.01,29.90,10,1,11,0.35
2014-6-23,89.4,81.1,72.5,79.4,75.5,70.5,97,84,64,30.09,29.94,8,1,9,0.00
2014-6-24,92.4,83.4,75.1,80.8,76.1,72.2,94,79,59,30.13,30.06,6,0,10,0.00
2014-6-25,89.0,82.5,75.6,79.8,77.0,73.8,96,84,71,30.13,30.03,5,0,10,0.00
2014-6-26,89.0,82.2,74.4,80.7,76.7,72.9,96,84,73,30.10,29.97,7,0,9,0.00
2014-6-27,89.9,82.9,76.7,80.5,76.5,72.6,96,81,68,30.11,30.00,5,0,9,0.00
2014-6-28,90.9,82.9,75.1,80.7,76.1,72.4,95,80,65,30.14,30.04,6,0,8,0.00
2014-6-29,93.5,82.8,76.4,79.7,75.1,71.2,93,78,57,30.11,30.02,4,0,11,0.00
2014-6-30,94.8,82.3,74.6,81.4,75.1,72.3,93,80,58,30.05,29.89,3,0,13,0.00
2014-7-1,88.1,81.7,77.7,76.3,75.0,72.6,92,81,61,29.92,29.81,6,0,8,0.00
2014-7-2,92.3,79.8,74.6,81.1,75.5,71.7,95,87,63,29.99,29.84,6,0,19,0.43
2014-7-3,91.0,83.4,77.6,81.3,77.0,69.0,94,82,54,30.09,29.98,10,1,16,0.00
2014-7-4,89.1,82.2,76.5,80.4,76.0,70.5,93,82,68,30.12,30.07,9,0,10,0.00
2014-7-5,87.3,80.9,76.1,80.8,76.6,73.5,97,87,74,30.13,30.05,4,0,7,1.18
2014-7-6,84.6,81.2,77.3,78.6,76.3,73.7,93,85,79,30.09,30.01,3,0,8,0.16
2014-7-7,90.6,83.8,80.1,81.2,77.7,75.6,92,82,70,30.10,30.00,5,0,8,0.00
2014-7-8,87.9,80.9,75.9,80.9,76.9,74.1,96,88,77,30.14,30.04,6,0,7,0.20
2014-7-9,90.8,77.6,73.0,82.3,75.5,70.7,99,94,68,30.13,30.06,7,0,11,2.05
2014-7-10,87.5,79.9,74.0,79.7,75.9,72.8,98,88,66,30.12,30.05,7,0,14,0.24
2014-7-11,89.0,84.5,77.6,81.0,78.0,75.4,96,81,71,30.13,30.05,4,0,9,0.00
2014-7-12,88.9,83.7,77.3,79.8,77.1,72.8,94,81,73,30.12,30.05,5,0,11,0.04
2014-7-13,87.8,83.5,79.7,80.1,77.2,74.0,93,82,72,30.09,30.03,7,1,10,0.20
2014-7-14,90.5,84.2,79.2,79.1,76.7,74.5,91,79,66,30.08,30.01,7,0,9,0.00
2014-7-15,87.7,80.7,77.2,79.3,75.7,74.0,93,85,72,30.03,29.96,7,0,10,0.08
2014-7-16,92.4,80.1,75.5,78.6,75.8,72.2,96,87,59,30.01,29.93,7,0,10,0.71
2014-7-17,89.5,78.8,73.4,81.4,75.5,71.9,97,90,71,30.06,29.94,7,0,15,0.75
2014-7-18,97.3,83.7,74.9,81.6,77.6,73.7,98,83,54,30.08,29.98,5,0,9,0.04
2014-7-19,90.5,83.3,76.0,81.3,77.9,75.0,98,84,71,30.08,29.99,6,0,9,0.00
2014-7-20,90.1,85.4,79.6,80.6,77.9,75.7,90,79,69,30.05,29.98,7,0,8,0.00
2014-7-21,88.3,82.4,78.1,79.4,76.7,74.3,90,83,71,30.05,29.98,9,0,17,0.00
2014-7-22,88.0,82.0,76.9,79.5,76.9,74.4,94,85,74,30.07,29.97,5,0,9,0.08
2014-7-23,87.8,82.9,78.4,80.3,77.9,75.5,97,85,71,30.09,30.01,4,0,9,1.38
2014-7-24,90.0,84.4,77.6,80.7,76.8,74.2,93,78,67,30.05,29.99,6,0,8,0.00
2014-7-25,90.1,84.6,76.8,80.5,77.8,74.4,95,80,69,30.08,30.00,7,0,9,0.00
2014-7-26,89.6,84.1,79.3,81.4,77.0,72.9,94,80,68,30.11,30.02,3,0,9,0.00
2014-7-27,90.0,84.4,77.3,80.1,76.6,74.6,95,78,64,30.10,30.03,7,1,11,0.00
2014-7-28,95.5,86.3,79.3,81.2,78.1,76.2,92,77,56,30.07,29.98,7,0,9,0.00
2014-7-29,96.5,83.6,76.6,80.7,77.1,72.5,94,82,50,30.01,29.93,8,0,11,0.50
2014-7-30,90.1,79.8,74.9,80.7,76.7,72.7,97,91,70,29.99,29.92,6,0,10,2.80
2014-7-31,89.7,80.6,75.1,80.2,76.5,73.4,98,88,70,30.00,29.93,8,0,10,0.00
2014-8-1,90.6,85.4,78.8,80.5,77.9,75.6,91,79,69,30.00,29.91,5,0,11,0.00
2014-8-2,91.5,84.8,78.6,82.4,78.3,75.8,95,81,68,29.97,29.87,7,0,9,0.00
2014-8-3,85.6,80.5,72.9,80.1,77.0,70.7,96,89,77,29.95,29.85,7,0,14,1.60
2014-8-4,89.3,77.9,74.5,81.3,75.2,72.3,97,92,69,30.01,29.86,10,0,13,0.60
2014-8-5,91.7,82.5,74.9,81.7,76.2,73.3,96,82,60,30.06,29.96,5,0,8,0.00
2014-8-6,91.6,82.9,75.7,81.2,77.0,74.2,96,83,65,30.05,29.98,5,0,8,0.20
2014-8-7,91.3,83.1,75.1,80.5,77.0,71.3,96,82,67,30.02,29.92,9,1,11,0.16
2014-8-8,90.1,82.8,76.6,82.3,75.6,72.5,97,80,61,30.05,29.96,5,0,9,0.00
2014-8-9,90.1,83.2,77.4,76.8,73.9,66.2,87,74,53,30.07,29.99,12,1,12,0.01
2014-8-10,90.3,84.1,76.9,78.8,74.5,70.0,89,74,59,30.07,29.98,9,0,10,0.00
2014-8-11,90.0,84.0,75.4,76.3,72.7,70.2,87,70,56,30.06,29.98,12,1,12,0.00
2014-8-12,90.1,84.3,76.5,76.1,72.8,70.6,86,69,55,30.03,29.96,12,1,12,0.00
2014-8-13,90.5,83.6,76.7,75.8,73.4,69.7,87,72,55,30.03,29.96,11,2,12,0.04
2014-8-14,91.1,82.9,77.7,76.6,74.2,71.0,88,76,54,30.04,29.97,13,0,13,0.40
2014-8-15,92.6,78.8,74.1,77.9,73.0,69.0,89,83,55,30.09,29.96,14,0,15,1.75
2014-8-16,90.4,81.2,74.9,78.1,72.9,68.2,89,77,60,30.09,29.99,11,1,11,0.01
2014-8-17,90.4,83.9,77.3,78.7,74.3,71.2,88,74,59,30.10,30.03,7,1,7,0.00
2014-8-18,91.1,85.1,76.7,77.2,74.2,71.9,87,70,55,30.08,29.96,8,1,9,0.00
2014-8-19,92.3,86.3,78.2,77.6,75.1,72.8,87,70,57,30.03,29.95,10,1,10,0.00
2014-8-20,91.3,85.5,77.4,77.4,74.5,72.0,85,70,59,30.08,29.97,10,1,10,0.00
2014-8-21,91.0,86.2,80.3,78.5,75.3,73.3,84,71,60,30.10,30.02,9,1,11,0.00
2014-8-22,90.9,86.3,81.1,77.8,74.9,72.8,80,69,60,30.09,29.96,9,1,9,0.00
2014-8-23,93.1,86.4,80.2,78.4,74.2,70.7,82,67,54,29.99,29.85,11,1,11,0.00
2014-8-24,93.2,85.8,77.2,77.0,73.9,71.4,85,69,52,29.87,29.73,13,1,13,0.00
2014-8-25,94.1,85.2,80.3,78.8,75.4,71.9,85,73,59,29.78,29.71,16,1,18,0.15
2014-8-26,92.5,86.3,83.1,74.8,71.8,67.5,71,62,52,29.89,29.75,17,3,17,0.00
2014-8-27,92.0,85.0,77.6,75.8,71.5,67.1,77,64,53,29.97,29.86,12,1,12,0.00
2014-8-28,89.0,84.8,80.7,78.0,74.7,71.4,79,72,64,30.01,29.92,9,1,9,0.04
2014-8-29,90.3,86.4,82.7,77.5,75.6,72.7,77,70,61,30.09,29.97,10,1,11,0.00
2014-8-30,90.7,86.9,83.1,77.8,75.4,68.0,75,69,60,30.10,30.02,9,2,11,0.00
2014-8-31,90.5,86.1,80.3,76.6,74.4,69.3,80,68,60,30.10,30.04,8,1,13,0.00
2014-9-1,90.2,85.8,83.2,76.4,73.9,70.3,75,68,60,30.09,30.01,10,1,10,0.00
2014-9-2,89.0,84.8,78.5,76.4,72.5,67.2,80,67,57,30.07,29.97,12,1,12,0.01
2014-9-3,87.2,82.3,77.6,77.4,71.5,67.9,87,70,60,30.04,29.95,9,1,9,0.64
2014-9-4,90.1,82.8,75.9,75.6,72.5,68.4,88,72,50,30.10,30.00,11,1,12,0.12
2014-9-5,89.5,85.4,82.0,78.3,75.3,71.9,80,72,64,30.10,30.01,9,1,9,0.07
2014-9-6,86.7,83.6,81.8,76.6,74.7,72.2,81,75,69,30.05,29.94,9,1,10,0.18
2014-9-7,88.7,84.3,78.1,75.5,73.0,68.2,85,69,53,30.02,29.94,9,2,10,0.02
2014-9-8,88.1,82.5,72.8,75.4,72.5,66.4,89,73,59,30.05,29.97,11,1,14,0.60
2014-9-9,88.8,84.3,80.5,75.1,72.4,69.0,76,68,58,30.04,29.96,10,2,11,0.00
2014-9-10,88.0,83.2,78.8,75.3,72.2,69.6,80,70,61,30.00,29.93,9,2,9,0.00
2014-9-11,85.3,78.9,74.5,75.9,72.1,70.6,88,80,68,30.00,29.92,3,0,5,0.78
2014-9-12,86.1,79.3,73.0,73.6,71.1,68.9,89,77,60,30.00,29.90,17,2,17,0.33
2014-9-13,87.2,80.4,74.0,75.4,72.0,66.7,88,76,60,30.08,29.95,16,1,18,0.73
2014-9-14,87.2,80.3,74.0,74.6,71.4,67.9,88,75,56,30.12,30.03,11,1,11,0.02
2014-9-15,90.4,84.0,79.6,76.9,73.7,71.1,81,71,58,30.14,30.06,9,0,10,0.00
2014-9-16,89.0,81.7,76.3,76.2,73.2,71.0,88,76,62,30.11,29.96,7,0,8,0.00
2014-9-17,93.8,80.4,74.0,75.8,70.8,67.4,87,74,48,30.00,29.86,6,0,14,0.00
2014-9-18,87.3,79.9,74.6,75.8,72.2,69.6,88,78,65,29.93,29.85,8,0,10,0.35
2014-9-19,86.5,78.0,75.0,76.0,72.9,70.9,90,85,68,29.95,29.87,8,0,9,0.25
2014-9-20,90.0,78.2,74.3,76.8,72.5,70.2,90,84,56,29.96,29.85,7,0,8,0.54
2014-9-21,87.5,78.2,72.3,75.4,71.7,67.7,90,81,64,30.03,29.91,9,0,12,0.93
2014-9-22,86.8,78.6,73.9,77.2,72.3,67.9,91,82,58,30.05,29.93,8,0,10,0.02
2014-9-23,82.8,78.5,74.4,73.6,71.5,68.1,89,79,69,30.02,29.91,17,1,17,0.21
2014-9-24,86.0,80.5,73.9,76.3,72.9,68.5,89,78,69,30.04,29.95,10,1,11,0.07
2014-9-25,87.4,80.8,76.7,77.4,74.1,71.4,88,80,70,30.03,29.95,11,1,12,0.19
2014-9-26,87.8,82.0,76.7,78.2,74.7,71.6,89,79,63,29.98,29.90,9,1,11,0.50
2014-9-27,88.9,84.1,77.8,77.5,74.5,70.3,81,73,61,29.97,29.90,10,1,13,0.04
2014-9-28,88.6,83.9,77.9,76.7,74.1,71.2,84,73,65,29.98,29.89,10,1,10,0.00
2014-9-29,87.7,81.6,75.7,75.5,73.2,71.5,88,76,64,29.94,29.80,8,1,9,0.64
2014-9-30,90.4,80.1,74.4,78.8,74.0,70.9,90,82,62,29.87,29.79,8,0,8,0.38
2014-10-1,93.5,83.3,75.6,77.9,74.1,71.7,90,75,53,29.97,29.84,6,0,7,0.00
2014-10-2,94.7,84.3,76.8,77.0,74.2,70.4,88,73,50,30.02,29.92,8,0,9,0.00
2014-10-3,89.7,82.3,74.5,77.4,74.2,69.7,88,77,63,30.02,29.92,9,1,9,0.91
2014-10-4,92.9,80.2,74.6,77.4,73.3,70.0,90,80,51,29.98,29.80,7,0,9,0.55
2014-10-5,87.0,75.3,65.2,71.1,63.9,57.5,87,70,40,29.98,29.88,9,0,12,0.00
2014-10-6,85.4,78.0,69.9,70.0,67.0,63.8,85,70,57,30.05,29.95,13,1,16,0.00
2014-10-7,83.8,80.4,75.9,73.6,71.1,69.1,84,74,64,30.08,29.99,8,1,9,0.04
2014-10-8,87.7,80.6,73.7,75.7,72.3,69.6,89,76,64,30.10,30.00,12,1,12,0.00
2014-10-9,89.1,82.8,79.2,74.8,71.5,67.2,77,69,57,30.05,29.97,15,2,15,0.02
2014-10-10,88.4,83.3,79.9,72.8,70.0,67.4,72,64,53,30.02,29.93,13,2,13,0.00
2014-10-11,89.0,83.2,80.3,74.0,70.4,67.6,72,66,55,30.00,29.93,13,1,13,0.00
2014-10-12,87.0,82.8,80.0,74.2,71.8,68.3,76,69,61,30.05,29.96,11,1,11,0.00
2014-10-13,87.0,83.4,81.2,74.0,71.5,69.4,73,68,61,30.07,30.00,11,3,12,0.00
2014-10-14,86.8,83.5,79.6,75.4,73.6,69.7,79,72,67,30.02,29.91,12,3,13,0.00
2014-10-15,87.1,81.1,76.4,76.6,73.8,69.0,86,79,67,29.99,29.88,10,1,10,0.09
2014-10-16,87.8,77.5,68.6,73.5,64.3,59.9,87,66,42,29.96,29.85,9,0,9,0.00
2014-10-17,87.8,74.5,64.5,62.5,57.6,47.8,79,59,29,29.97,29.88,6,0,6,0.00
2014-10-18,82.9,74.2,63.9,65.0,62.7,59.6,89,69,52,29.98,29.89,8,1,8,0.00
2014-10-19,84.8,76.5,68.0,67.8,65.0,63.0,87,69,52,30.00,29.94,10,1,10,0.00
2014-10-20,85.0,81.0,75.1,68.4,65.2,61.3,66,59,49,30.02,29.92,8,1,8,0.00
2014-10-21,81.4,77.5,72.8,74.1,69.6,66.4,87,77,66,29.96,29.88,11,1,11,0.16
2014-10-22,82.8,76.9,72.0,72.0,69.9,67.9,88,80,65,29.96,29.88,9,0,9,0.01
2014-10-23,78.1,75.7,73.1,72.6,69.2,66.0,88,81,69,29.93,29.86,15,2,16,0.36
2014-10-24,79.9,78.5,77.5,69.1,67.9,66.4,74,70,67,29.90,29.80,17,4,18,0.00
2014-10-25,86.2,75.6,66.5,66.9,63.3,60.4,81,67,45,29.93,29.83,15,1,15,0.00
2014-10-26,85.2,74.3,66.6,66.3,61.0,53.7,84,65,37,30.01,29.87,11,1,13,0.00
2014-10-27,83.3,74.3,63.4,67.1,61.9,58.1,83,66,53,30.08,29.97,9,1,9,0.00
2014-10-28,84.6,79.7,76.1,68.5,64.7,60.1,72,60,54,30.13,30.05,10,1,10,0.00
2014-10-29,84.8,80.1,75.8,67.2,64.9,61.3,68,60,49,30.08,29.97,8,1,9,0.00
2014-10-30,86.7,77.4,68.5,68.6,65.5,60.6,88,68,45,29.97,29.84,11,0,11,0.00
2014-10-31,86.9,76.3,66.4,69.0,64.6,51.6,88,68,47,29.88,29.74,9,0,10,0.00
2014-11-1,78.1,66.1,54.2,57.4,49.4,34.7,85,57,35,30.12,29.87,13,1,13,0.00
2014-11-2,74.2,60.6,50.4,49.6,42.2,35.9,66,52,28,30.24,30.12,11,1,11,0.00
2014-11-3,78.3,68.5,58.2,58.5,52.5,44.8,68,57,46,30.28,30.19,13,2,16,0.00
2014-11-4,81.2,75.6,71.9,62.8,57.7,52.1,64,54,44,30.25,30.13,18,3,18,0.00
2014-11-5,82.3,77.4,74.8,67.3,64.5,61.5,70,65,57,30.18,30.06,19,3,19,0.00
2014-11-6,84.1,76.6,66.9,66.5,63.5,61.2,83,65,51,30.10,29.95,8,1,14,0.00
2014-11-7,86.0,73.9,66.2,67.2,63.7,61.1,85,72,47,29.97,29.87,7,0,7,0.00
2014-11-8,80.7,74.0,65.4,68.9,65.5,61.4,90,76,60,29.93,29.82,13,1,13,0.00
2014-11-9,72.9,69.2,66.3,68.4,65.2,62.7,89,87,75,29.89,29.81,4,0,4,0.57
2014-11-10,78.5,68.6,64.7,67.8,63.1,60.4,90,83,63,29.93,29.85,7,0,7,0.56
2014-11-11,82.2,69.9,60.0,61.8,58.4,52.6,90,70,40,29.94,29.85,8,0,9,0.00
2014-11-12,86.1,72.3,62.1,68.1,61.7,56.2,84,71,50,30.01,29.92,12,0,13,0.00
2014-11-13,84.8,74.3,65.5,68.6,64.4,61.3,89,73,54,30.02,29.93,7,1,10,0.00
2014-11-14,83.8,71.1,62.3,66.9,61.3,55.3,90,73,42,30.08,29.95,8,0,9,0.00
2014-11-15,82.5,72.6,62.7,68.9,63.0,58.4,87,73,57,30.17,30.05,11,1,11,0.00
2014-11-16,81.8,77.9,74.3,71.1,67.6,63.9,78,71,65,30.17,30.03,15,2,15,0.00
2014-11-17,83.8,79.3,73.4,75.3,72.2,68.7,87,79,63,30.03,29.90,13,2,15,0.53
2014-11-18,76.9,68.1,57.0,69.8,62.3,52.1,87,82,76,30.18,29.94,8,1,9,0.02
2014-11-19,71.0,60.7,54.9,61.1,55.6,50.9,88,84,70,30.23,30.14,13,0,13,0.26
2014-11-20,77.0,69.3,62.8,64.9,60.2,57.1,87,73,61,30.18,30.08,17,2,17,0.07
2014-11-21,74.7,72.4,69.5,66.5,64.7,62.6,86,77,69,30.19,30.09,20,4,21,0.09
2014-11-22,79.7,76.8,74.5,71.2,68.6,65.9,84,76,69,30.18,30.05,16,4,20,0.08
2014-11-23,82.8,79.8,77.6,74.4,72.3,70.5,82,78,74,30.05,29.90,17,4,17,0.00
2014-11-24,84.3,80.9,78.5,77.0,74.9,73.3,86,82,74,30.03,29.92,12,2,12,0.00
2014-11-25,83.5,80.5,79.0,74.7,73.5,72.0,85,80,72,30.03,29.90,15,4,15,0.00
2014-11-26,81.6,70.2,56.6,74.9,63.0,46.1,88,78,60,30.17,29.90,11,1,14,0.68
2014-11-27,76.4,62.6,53.8,51.8,45.7,35.3,80,57,30,30.26,30.13,10,0,12,0.00
2014-11-28,74.3,61.3,51.7,54.3,48.7,42.9,76,64,47,30.23,30.14,14,0,14,0.00
2014-11-29,76.7,65.8,54.1,58.7,53.0,48.2,83,65,47,30.25,30.16,13,1,14,0.00
2014-11-30,78.3,73.7,70.4,63.8,58.1,53.6,69,58,49,30.28,30.19,18,2,18,0.00
2014-12-1,80.3,75.0,70.2,68.1,65.0,61.2,85,71,62,30.26,30.15,16,2,16,0.17
2014-12-2,78.4,74.6,69.0,68.7,66.4,64.3,88,76,69,30.16,30.07,16,2,17,0.28
2014-12-3,81.4,76.5,73.6,68.4,66.0,64.5,79,70,61,30.14,30.04,15,2,16,0.01
2014-12-4,81.5,76.6,72.9,69.8,67.4,65.2,82,74,65,30.14,30.05,16,3,16,0.07
2014-12-5,82.0,76.1,71.6,71.2,68.6,66.1,87,78,67,30.19,30.09,11,1,13,0.62
2014-12-6,81.4,75.1,66.5,67.1,63.9,60.5,83,69,57,30.19,30.07,9,1,9,0.00
2014-12-7,81.3,70.1,63.8,68.3,62.7,58.0,88,78,62,30.08,29.97,7,0,8,0.00
2014-12-8,79.3,67.0,59.1,65.0,58.3,54.9,87,74,55,30.07,29.97,6,0,6,0.00
2014-12-9,71.4,63.2,54.8,59.5,55.9,48.1,87,78,61,30.04,29.95,11,1,11,0.00
2014-12-10,68.0,56.0,47.1,48.0,41.0,36.0,83,60,32,30.15,30.04,10,0,10,0.00
2014-12-11,70.0,57.1,46.1,53.7,48.1,41.6,89,73,51,30.21,30.10,7,0,7,0.00
2014-12-12,68.6,60.0,51.4,52.1,46.4,37.6,84,63,36,30.24,30.12,5,0,7,0.00
2014-12-13,76.6,63.6,54.7,58.8,51.5,45.9,80,66,47,30.14,30.03,8,1,12,0.00
2014-12-14,77.6,63.7,55.1,55.5,49.7,44.1,78,61,44,30.10,30.01,6,0,8,0.00
2014-12-15,77.1,65.2,55.3,57.5,51.7,45.4,77,63,43,30.12,30.03,7,0,7,0.00
2014-12-16,78.6,64.6,54.8,58.4,53.9,49.1,84,70,46,30.19,30.10,5,0,6,0.00
2014-12-17,81.0,66.0,53.4,58.9,54.5,49.1,88,69,38,30.20,30.08,5,0,5,0.00
2014-12-18,79.7,66.8,57.6,63.0,56.3,51.6,88,70,48,30.17,30.04,6,0,6,0.00
2014-12-19,79.0,68.1,56.2,63.7,57.6,50.8,84,70,56,30.10,30.01,10,1,10,0.00
2014-12-20,77.9,73.2,69.3,64.2,60.6,53.5,79,65,55,30.10,30.01,9,1,9,0.00
2014-12-21,79.2,73.4,64.8,66.5,63.5,59.5,87,72,62,30.10,30.00,10,1,10,0.00
2014-12-22,80.3,75.0,65.3,69.7,67.0,60.7,88,76,68,30.03,29.92,8,2,11,0.00
2014-12-23,81.2,77.4,74.9,71.5,69.9,68.2,83,78,71,29.98,29.90,13,2,13,0.00
2014-12-24,81.7,78.4,76.3,73.4,71.5,68.9,85,80,74,29.97,29.89,16,4,16,0.00
2014-12-25,78.3,70.7,67.8,72.3,62.4,54.8,88,75,57,30.16,29.94,14,1,14,0.15
2014-12-26,74.5,70.5,65.2,70.4,65.0,57.6,89,83,71,30.19,30.10,7,0,7,0.64
2014-12-27,80.5,74.7,69.3,72.8,68.3,66.0,91,81,67,30.23,30.13,7,1,7,0.00
2014-12-28,80.2,74.9,65.8,70.2,67.3,61.5,89,77,70,30.17,30.08,8,1,8,0.00
2014-12-29,81.2,76.5,71.7,71.7,68.8,66.2,89,77,67,30.13,30.05,8,2,11,0.02
2014-12-30,81.4,75.3,69.2,69.9,67.3,64.5,88,77,62,30.19,30.08,7,0,7,0.00
2014-12-31,80.2,74.3,70.1,69.3,67.6,65.7,87,80,64,30.21,30.10,9,0,9,0.01
2015-1-1,76.3,73.9,70.1,71.3,68.6,66.0,88,84,77,30.20,30.10,7,0,7,0.45
2015-1-2,80.3,77.6,75.1,71.4,69.9,68.0,84,77,71,30.23,30.15,10,3,11,0.06